Stündliche Wetter Bolshie Lomy

Heute, 28 Januar, Donnerstag

Zeit Temperatur Niederschläge Wind Luftdruck Luftfeuchtigkeit
00:00 -7°C° 0 mm 2 m/S 735 mmHg 96%
01:00 -7°C° 0 mm 2 m/S 734 mmHg 95%
02:00 -4°C° 0 mm 1 m/S 734 mmHg 97%
03:00 -4°C° 0 mm 1 m/S 734 mmHg 96%
04:00 -4°C° 0 mm 1 m/S 734 mmHg 96%
05:00 -3°C° 0 mm 1 m/S 734 mmHg 95%
06:00 -3°C° 0 mm 1 m/S 734 mmHg 95%
07:00 -3°C° 0 mm 1 m/S 733 mmHg 95%
08:00 -5°C° 0 mm 2 m/S 733 mmHg 95%
09:00 -4°C° 0.5 mm 2 m/S 733 mmHg 95%
10:00 -4°C° 0.5 mm 2 m/S 733 mmHg 96%
11:00 -4°C° 0.5 mm 3 m/S 732 mmHg 96%
12:00 -4°C° 0.3 mm 3 m/S 732 mmHg 96%
13:00 -4°C° 0.3 mm 3 m/S 731 mmHg 96%
14:00 -4°C° 0.3 mm 3 m/S 731 mmHg 96%
15:00 -2°C° 0.2 mm 3 m/S 731 mmHg 96%
16:00 -2°C° 0.2 mm 2 m/S 731 mmHg 97%
17:00 -2°C° 0.2 mm 2 m/S 730 mmHg 97%
18:00 -2°C° 0.2 mm 2 m/S 730 mmHg 98%
19:00 -1°C° 0.2 mm 2 m/S 730 mmHg 98%
20:00 +1°C° 0.2 mm 2 m/S 729 mmHg 99%
21:00 0°C° 0.2 mm 3 m/S 729 mmHg 99%
22:00 0°C° 0.2 mm 3 m/S 728 mmHg 99%
23:00 -1°C° 0.2 mm 4 m/S 728 mmHg 99%

Morgen, 29 Januar, Freitag

Zeit Temperatur Niederschläge Wind Luftdruck Luftfeuchtigkeit
00:00 -1°C° 0.2 mm 4 m/S 727 mmHg 99%
01:00 -1°C° 0.2 mm 4 m/S 727 mmHg 99%
02:00 -1°C° 0.2 mm 4 m/S 726 mmHg 99%
03:00 -1°C° 0.1 mm 4 m/S 726 mmHg 98%
04:00 -1°C° 0.1 mm 5 m/S 725 mmHg 97%
05:00 0°C° 0.1 mm 5 m/S 725 mmHg 97%
06:00 -2°C° 0 mm 5 m/S 725 mmHg 94%
07:00 -4°C° 0 mm 5 m/S 724 mmHg 90%
08:00 -5°C° 0 mm 5 m/S 724 mmHg 87%
09:00 -5°C° 0 mm 6 m/S 724 mmHg 87%
10:00 -5°C° 0 mm 6 m/S 723 mmHg 87%
11:00 -5°C° 0 mm 6 m/S 723 mmHg 88%
12:00 -5°C° 0.1 mm 6 m/S 723 mmHg 89%
13:00 -5°C° 0.1 mm 6 m/S 722 mmHg 91%
14:00 -5°C° 0.1 mm 6 m/S 722 mmHg 92%
15:00 -5°C° 0.2 mm 6 m/S 722 mmHg 92%
16:00 -5°C° 0.2 mm 6 m/S 722 mmHg 92%
17:00 -5°C° 0.2 mm 6 m/S 722 mmHg 91%
18:00 -6°C° 0 mm 5 m/S 722 mmHg 91%
19:00 -7°C° 0 mm 5 m/S 722 mmHg 91%
20:00 -8°C° 0 mm 4 m/S 722 mmHg 92%
21:00 -9°C° 0 mm 4 m/S 722 mmHg 92%
22:00 -8°C° 0 mm 3 m/S 722 mmHg 93%
23:00 -8°C° 0 mm 3 m/S 723 mmHg 93%

übermorgen, 30 Januar, Samstag

Zeit Temperatur Niederschläge Wind Luftdruck Luftfeuchtigkeit
00:00 -8°C° 0 mm 3 m/S 723 mmHg 93%
01:00 -8°C° 0 mm 3 m/S 723 mmHg 93%
02:00 -9°C° 0 mm 4 m/S 723 mmHg 93%
03:00 -9°C° 0.1 mm 4 m/S 723 mmHg 93%
04:00 -9°C° 0.1 mm 4 m/S 723 mmHg 93%
05:00 -10°C° 0.1 mm 4 m/S 723 mmHg 93%
06:00 -9°C° 0.1 mm 4 m/S 723 mmHg 93%
07:00 -9°C° 0.1 mm 4 m/S 723 mmHg 93%
08:00 -9°C° 0.1 mm 4 m/S 723 mmHg 93%
09:00 -10°C° 0 mm 5 m/S 724 mmHg 92%
10:00 -10°C° 0 mm 5 m/S 724 mmHg 91%
11:00 -8°C° 0 mm 5 m/S 725 mmHg 90%
12:00 -8°C° 0 mm 5 m/S 725 mmHg 89%
13:00 -8°C° 0 mm 5 m/S 725 mmHg 89%
14:00 -10°C° 0 mm 5 m/S 725 mmHg 89%
15:00 -10°C° 0 mm 5 m/S 725 mmHg 89%
16:00 -9°C° 0 mm 4 m/S 725 mmHg 90%
17:00 -9°C° 0 mm 4 m/S 725 mmHg 90%
18:00 -9°C° 0 mm 4 m/S 725 mmHg 91%
19:00 -8°C° 0 mm 3 m/S 726 mmHg 92%
20:00 -8°C° 0 mm 3 m/S 726 mmHg 93%
21:00 -8°C° 0.1 mm 3 m/S 725 mmHg 94%
22:00 -8°C° 0.1 mm 3 m/S 725 mmHg 94%
23:00 -7°C° 0.1 mm 2 m/S 725 mmHg 95%

31 Januar, Sonntag

Zeit Temperatur Niederschläge Wind Luftdruck Luftfeuchtigkeit
00:00 -7°C° 0 mm 2 m/S 724 mmHg 96%
01:00 -7°C° 0 mm 2 m/S 724 mmHg 96%
02:00 -6°C° 0 mm 1 m/S 724 mmHg 96%
03:00 -6°C° 0.1 mm 1 m/S 723 mmHg 96%
04:00 -6°C° 0.1 mm 1 m/S 723 mmHg 96%
05:00 -6°C° 0.1 mm 1 m/S 722 mmHg 96%
06:00 -6°C° 0.1 mm 1 m/S 722 mmHg 96%
07:00 -7°C° 0.1 mm 2 m/S 722 mmHg 96%
08:00 -7°C° 0.1 mm 2 m/S 722 mmHg 96%
09:00 -8°C° 0.1 mm 3 m/S 722 mmHg 95%
10:00 -8°C° 0.1 mm 3 m/S 722 mmHg 94%
11:00 -7°C° 0.1 mm 3 m/S 722 mmHg 93%
12:00 -8°C° 0 mm 4 m/S 723 mmHg 92%
13:00 -8°C° 0 mm 4 m/S 723 mmHg 91%
14:00 -8°C° 0 mm 4 m/S 724 mmHg 90%
15:00 -9°C° 0 mm 4 m/S 725 mmHg 90%
16:00 -9°C° 0 mm 4 m/S 725 mmHg 90%
17:00 -10°C° 0 mm 5 m/S 726 mmHg 90%
18:00 -10°C° 0 mm 5 m/S 727 mmHg 90%
19:00 -11°C° 0 mm 5 m/S 728 mmHg 90%
20:00 -11°C° 0 mm 5 m/S 728 mmHg 91%
21:00 -11°C° 0 mm 5 m/S 729 mmHg 91%
22:00 -11°C° 0 mm 5 m/S 730 mmHg 91%
23:00 -11°C° 0 mm 5 m/S 730 mmHg 91%

1 Februar, Montag

Zeit Temperatur Niederschläge Wind Luftdruck Luftfeuchtigkeit
00:00 -10°C° 0 mm 4 m/S 731 mmHg 91%
01:00 -10°C° 0 mm 4 m/S 732 mmHg 91%
02:00 -11°C° 0 mm 4 m/S 732 mmHg 91%
03:00 -11°C° 0 mm 4 m/S 733 mmHg 92%
04:00 -11°C° 0 mm 4 m/S 733 mmHg 93%
05:00 -12°C° 0 mm 4 m/S 733 mmHg 94%
06:00 -12°C° 0 mm 4 m/S 734 mmHg 95%
07:00 -14°C° 0 mm 4 m/S 734 mmHg 95%
08:00 -15°C° 0 mm 4 m/S 735 mmHg 95%
09:00 -14°C° 0 mm 4 m/S 735 mmHg 94%
10:00 -12°C° 0 mm 3 m/S 735 mmHg 93%
11:00 -10°C° 0 mm 3 m/S 735 mmHg 92%
12:00 -10°C° 0 mm 3 m/S 735 mmHg 92%
13:00 -9°C° 0 mm 3 m/S 735 mmHg 92%
14:00 -8°C° 0 mm 2 m/S 735 mmHg 92%
15:00 -9°C° 0 mm 2 m/S 734 mmHg 93%
16:00 -9°C° 0 mm 2 m/S 734 mmHg 94%
17:00 -10°C° 0 mm 2 m/S 734 mmHg 95%
18:00 -10°C° 0 mm 2 m/S 734 mmHg 95%
19:00 -9°C° 0 mm 2 m/S 733 mmHg 94%
20:00 -9°C° 0 mm 2 m/S 733 mmHg 94%
21:00 -8°C° 0.3 mm 2 m/S 732 mmHg 94%
22:00 -9°C° 0.3 mm 3 m/S 732 mmHg 95%
23:00 -8°C° 0.3 mm 3 m/S 731 mmHg 95%

2 Februar, Dienstag

Zeit Temperatur Niederschläge Wind Luftdruck Luftfeuchtigkeit
00:00 -8°C° 0.4 mm 3 m/S 731 mmHg 95%
01:00 -9°C° 0.4 mm 4 m/S 731 mmHg 95%
02:00 -9°C° 0.4 mm 4 m/S 731 mmHg 95%
03:00 -10°C° 0.3 mm 4 m/S 731 mmHg 94%
04:00 -10°C° 0.3 mm 4 m/S 731 mmHg 94%
05:00 -10°C° 0.3 mm 4 m/S 731 mmHg 93%
06:00 -12°C° 0 mm 4 m/S 731 mmHg 93%
07:00 -14°C° 0 mm 4 m/S 732 mmHg 93%
08:00 -15°C° 0 mm 3 m/S 732 mmHg 93%
09:00 -14°C° 0 mm 3 m/S 733 mmHg 92%
10:00 -13°C° 0 mm 3 m/S 734 mmHg 91%
11:00 -12°C° 0 mm 3 m/S 735 mmHg 90%
12:00 -12°C° 0 mm 3 m/S 735 mmHg 91%
13:00 -10°C° 0 mm 3 m/S 735 mmHg 91%
14:00 -10°C° 0 mm 3 m/S 736 mmHg 92%
15:00 -12°C° 0 mm 3 m/S 736 mmHg 93%
16:00 -13°C° 0 mm 3 m/S 737 mmHg 94%
17:00 -13°C° 0 mm 2 m/S 737 mmHg 95%
18:00 -13°C° 0 mm 2 m/S 738 mmHg 95%
19:00 -15°C° 0 mm 3 m/S 738 mmHg 95%
20:00 -15°C° 0 mm 3 m/S 738 mmHg 96%
21:00 -15°C° 0 mm 3 m/S 739 mmHg 96%
22:00 -16°C° 0 mm 3 m/S 739 mmHg 96%
23:00 -16°C° 0 mm 3 m/S 739 mmHg 96%
Mehr zeigen

Wir brauchen deine Erlaubnis

Meteoprog und unser Service Anbieter werden persönliche Daten aufbewahren, so wie Cookies, Geräte Bezeichnung oder ähnliche Technologien von deinem Gerät und Prozess, so wie Persönliche Daten Inhalte und Werbungen, genauso wie social Media und den Verkehr zu analysieren.

  • Aufbewahrung und/oder Zugang zu deiner Geräte Informationen.

    Cookies, Geräte Bezeichnung oder andere Informationen, können aufbewahrt oder Zugang zu deinem Gerät erhalten, für den Grund, der oben angegeben wird.

  • Personalisierte Werbung und Inhalte, Messungen, Einblick in das Publikum und Produkt Entwicklung.

    Werbungen und Inhalte können personalisiert werden, basierend auf ein Profil. Mehr Daten können besser personalisierte Werbungen und Inhalte hinzufügen. Werbung und Inhalte können gezeigt und gemessen werden. Einblicke über das Publikum, welche die Werbung gesehen haben und den Inhalt, können abgeleitet werden. So wie Daten können genutzt werden, um es zu verbessern oder die Benutzer Erfahrung zu verbessern das System und die Software.

Wenn du “Ich stimme zu” klickst, erlaubst du uns, die Cookies zu benutzen die Geräte Bezeichnung, den Web oder ähnliche Technologien zu benutzen. Deine Settings, können in deinem Gerät bei deinem Browser geändert werden.

Für den bestimmten Zweck, berechtigten Interessen beruhen darauf, mehr als auf den Inhalt. Du kannst mehr darüber in unseren Privaten und Cookie Politik lesen.